Location: ??????
(42.0089°N, 44.3281°E)
Time: 00:26:23
(UTC+00:00)

Cosmos 2251 Rocket - Pass Details

Date: 31 May 2022
Orbit: 764 x 791 km, 74.0° (Epoch: 03 July)

Event Time Altitude Azimuth Distance (km) Brightness Sun altitude
Rises 22:36:21 0° 341° (NNW) 3,252 7.5 -22.2°
Reaches altitude 10° 22:38:44 10° 343° (NNW) 2,324 6.6 -22.1°
Maximum altitude 22:44:01 77° 70° (ENE) 799 3.6 -21.6°
Enters shadow 22:46:44 30° 152° (SSE) 1,380 4.5 -21.4°
